Regional Weather Roundup
Issued by NWS

Home | Current Version | Previous Version | Graphics & Text | Print | Product List | Glossary On
Versions: 1 2 3 4 5 6 7 8 9 10 11 12 13 14 15 16 17 18 19 20 21 22 23 24 25 26 27 28 29 30 31 32 33 34 35 36 37 38 39 40 41 42 43 44 45 46 47 48 49 50
000
ASUS43 KBIS 210202
RWRND

NORTH DAKOTA REGIONAL WEATHER ROUNDUP
NATIONAL WEATHER SERVICE BISMARCK ND
900 PM CDT FRI APR 20 2018

NOTE: "FAIR" INDICATES FEW OR NO CLOUDS BELOW 12,000 FEET WITH NO
SIGNIFICANT WEATHER AND/OR OBSTRUCTIONS TO VISIBILITY.


NDZ001>003-009>011-017-210300-
NORTHWEST NORTH DAKOTA

CITY           SKY/WX    TMP DP  RH WIND       PRES   REMARKS
WILLISTON      CLEAR     57  29  34 SE8       30.13R
MINOT          PTCLDY    51  36  56 SE12      30.21R
$$

NDZ018>021-031>035-040>046-210300-
SOUTHWEST NORTH DAKOTA

CITY           SKY/WX    TMP DP  RH WIND       PRES   REMARKS
BISMARCK       PTCLDY    51  32  48 S12       30.28R
DICKINSON      PTCLDY    49  36  61 S16       30.17R
GARRISON         N/A     45  31  58 S9        30.22R
HETTINGER ARPT CLOUDY    46  37  71 S23G29    30.21R
$$

NDZ004>008-012>016-024-026-027-054-210300-
NORTHEAST NORTH DAKOTA

CITY           SKY/WX    TMP DP  RH WIND       PRES   REMARKS
GRAND FORKS    FAIR      44  34  67 S5        30.35R
GRND FRKS AFB  FAIR      45  31  58 S6        30.34S
DEVILS LAKE    FAIR      42  33  70 SE10      30.31R
$$

NDZ022-023-025-028>030-036>039-047>053-210300-
SOUTHEAST NORTH DAKOTA

CITY           SKY/WX    TMP DP  RH WIND       PRES   REMARKS
FARGO          FAIR      49  38  65 S9        30.36R
JAMESTOWN      CLOUDY    45  37  73 S6        30.31R
$$





USA.gov is the U.S. government's official web portal to all federal, state and local government web resources and services.